Regional Weather Roundup
Issued by NWS

Home | Current Version | Previous Version | Graphics & Text | Print | Product List | Glossary On
Versions: 1 2 3 4 5 6 7 8 9 10 11 12 13 14 15 16 17 18 19 20 21 22 23 24 25 26 27 28 29 30 31 32 33 34 35 36 37 38 39 40 41 42 43 44 45 46 47 48 49 50
041
ASUS44 KJAN 222003
RWRMS

MISSISSIPPI HOURLY WEATHER ROUNDUP
NATIONAL WEATHER SERVICE JACKSON MS
300 PM CDT TUE APR 22 2014

NOTE: "FAIR: INDICATES FEW OR NO CLOUDS BELOW 12,000 FEET WITH NO
SIGNIFICANT WEATHER AND/OR OBSTRUCTIONS TO VISIBILITY.

MSZ001>002-007>008-010>013-018>021-025>028-034>036-222100-
NORTHWEST MISSISSIPPI

CITY           SKY/WX    TMP DP  RH WIND       PRES   REMARKS
CLARKSDALE       N/A     75  61  60 N12G17    29.95S
CLEVELAND      FAIR      75  65  69 N10       29.92F HAZE
GREENWOOD      PTSUNNY   77  61  57 N6        29.90F
GREENVILLE     MOSUNNY   76  62  62 N13       29.93F
GRENADA        FAIR      77  59  53 N6        29.90F
OLIVE BRANCH   PTSUNNY   72  61  68 N9        29.93F
OXFORD         FAIR      75  57  53 N9        29.92F
TUNICA         PTCLDY    73  61  64 N10       29.94F
$$

MSZ003>006-009-014>017-022>024-029>033-037>039-222100-
NORTHEAST MISSISSIPPI

CITY           SKY/WX    TMP DP  RH WIND       PRES   REMARKS
BELMONT        MOCLDY    71  63  77 NW5       29.89F
COLUMBUS AFB   PTSUNNY   75  60  59 CALM      29.89F
CORINTH        MOCLDY    75  59  57 N7        29.89F
GOLDN TRIANGLE PTSUNNY   72  61  68 NW3       29.93F
STARKVILLE     MOCLDY    72  61  68 NW3       29.90F
TUPELO         CLOUDY    75  59  57 NE6       29.88F
$$

MSZ040-058-222100-
CENTRAL MISSISSIPPI

CITY           SKY/WX    TMP DP  RH WIND       PRES   REMARKS
JACKSON INTL   CLOUDY    73  63  70 N7        29.92F
JACKSON HAWKNS PTSUNNY   74  60  61 N6        29.92F
MERIDIAN KEY   CLOUDY    66  63  90 NW5       29.92F FOG
MERIDIAN NAS   CLOUDY    66  62  87 W7        29.92F
RAYMOND        MOCLDY    72  66  83 NW3       29.93S
VICKSBURG      CLOUDY    77  61  57 N8        29.93F
$$

MSZ059>079-222100-
SOUTH MISSISSIPPI

CITY           SKY/WX    TMP DP  RH WIND       PRES   REMARKS
BROOKHAVEN     MOCLDY    72  63  73 N8        29.95S
HATTIESBURG    PTSUNNY   73  64  73 CALM      29.91F
MCCOMB         CLOUDY    75  62  64 N13       29.92F
NATCHEZ        PTSUNNY   73  63  68 N6        29.94F
PINE BELT      CLOUDY    73  63  68 W3        29.91F
$$

MSZ080>082-222100-
COASTAL MISSISSIPPI

CITY           SKY/WX    TMP DP  RH WIND       PRES   REMARKS
BAY ST LOUIS   PTSUNNY   77  63  61 W8        29.91F
BILOXI         PTSUNNY   75  66  71 VRB2      29.91F
PASCAGOULA     CLOUDY    77  65  66 SW9       29.89F
GULFPORT       PTSUNNY   76  64  66 CALM      29.90S
$$



USA.gov is the U.S. government's official web portal to all federal, state and local government web resources and services.